Terminal Aerodrome Forecast
Issued by NWS Rapid City, SD

Home | Current Version | Previous Version | Graphics & Text | Print | Product List | Glossary On
Versions: 1 2 3 4 5 6 7 8 9 10 11 12
000
FTUS43 KUNR 201730
TAFRAP
TAF
KRAP 201730Z 2018/2118 VRB06KT P6SM FEW250
     FM210600 33012G18KT P6SM FEW100=

USA.gov is the U.S. government's official web portal to all federal, state and local government web resources and services.